Location: Newark
(48.1281°N, 2.1556°W)
Time: 09:06:23
(UTC+00:00)

Envisat - Pass Details

Date: 27 November 2019
Orbit: 764 x 766 km, 98.1° (Epoch: 11 December)

Event Time Altitude Azimuth Distance (km) Brightness Sun altitude
Rises 17:19:40 0° 145° (SE) 3,222 6.1 -9.8°
Reaches altitude 10° 17:22:03 10° 139° (SE) 2,300 5.3 -10.2°
Maximum altitude 17:26:50 44° 68° (ENE) 1,050 3.3 -10.9°
Drops below altitude 10° 17:31:39 10° 358° (N) 2,314 5.3 -11.7°
Sets 17:34:03 0° 352° (N) 3,244 6.1 -12.0°
